WMT8HT LRSB-EDDN

Flight info

Callsign WMT8HT
Flight time 1h 35m
Altitude 36000
Route ULMIN DCT TIXIP DCT TEGRI DCT GAZDA DCT ARSIN/N0410F300 DCT SUBEN T161 AKINI Z109 UPALA UPALA1V
Aircraft A320/M-SDE3FGHIRWY/LB1

Departure

Time 2026-04-27 08:52
Airport Sibiu International Airport (LRSB)

Arrival

Time 2026-04-27 10:27
Airport Nuremberg Airport (EDDN)
Time Latitude Longitude Altitude Speed Heading
2026-04-27 08:13 45.78847 24.09413 1458 ft 0 kts 51°
2026-04-27 08:46 45.78847 24.09416 1460 ft 0 kts 64°
2026-04-27 08:47 45.78844 24.09421 1460 ft 1 kts 117°
2026-04-27 08:47 45.78829 24.09436 1459 ft 4 kts 143°
2026-04-27 08:47 45.78802 24.09484 1460 ft 8 kts 105°
2026-04-27 08:47 45.78801 24.09560 1460 ft 9 kts 94°
2026-04-27 08:48 45.78798 24.09658 1460 ft 11 kts 92°
2026-04-27 08:48 45.78796 24.09765 1460 ft 8 kts 90°
2026-04-27 08:48 45.78750 24.09800 1460 ft 9 kts 177°
2026-04-27 08:48 45.78690 24.09799 1460 ft 0 kts 181°
2026-04-27 08:50 45.78680 24.09798 1460 ft 3 kts 181°
2026-04-27 08:50 45.78630 24.09797 1459 ft 10 kts 181°
2026-04-27 08:51 45.78571 24.09787 1459 ft 6 kts 218°
2026-04-27 08:51 45.78568 24.09763 1460 ft 0 kts 270°
2026-04-27 08:51 45.78568 24.09726 1461 ft 23 kts 270°
2026-04-27 08:51 45.78578 24.09131 1472 ft 94 kts 271°
2026-04-27 08:52 45.78600 24.07929 1505 ft 144 kts 272°
2026-04-27 08:52 45.78615 24.06408 1935 ft 152 kts 271°
2026-04-27 08:52 45.78638 24.04902 2584 ft 150 kts 274°
2026-04-27 08:52 45.78675 24.03346 2957 ft 166 kts 273°
2026-04-27 08:53 45.78707 24.01588 3240 ft 188 kts 272°
2026-04-27 08:53 45.78739 23.99597 3539 ft 212 kts 272°
2026-04-27 08:53 45.78775 23.97346 3905 ft 238 kts 271°
2026-04-27 08:53 45.78813 23.94875 4536 ft 255 kts 271°
2026-04-27 08:54 45.78851 23.92324 5610 ft 256 kts 271°
2026-04-27 08:54 45.78887 23.89767 6676 ft 258 kts 270°
2026-04-27 08:54 45.78923 23.87175 7650 ft 262 kts 271°
2026-04-27 08:54 45.78958 23.84555 8545 ft 266 kts 272°
2026-04-27 08:55 45.78991 23.81890 9475 ft 269 kts 272°
2026-04-27 08:55 45.79028 23.79195 10370 ft 273 kts 273°
2026-04-27 08:55 45.79069 23.76377 10755 ft 294 kts 273°
2026-04-27 08:55 45.79113 23.73399 11155 ft 310 kts 273°
2026-04-27 08:56 45.79154 23.70279 11851 ft 315 kts 272°
2026-04-27 08:56 45.79192 23.67123 12646 ft 319 kts 272°
2026-04-27 08:56 45.79232 23.63935 13430 ft 322 kts 272°
2026-04-27 08:56 45.79311 23.60719 14205 ft 324 kts 277°
2026-04-27 08:57 45.79954 23.54281 15572 ft 329 kts 279°
2026-04-27 08:57 45.80280 23.51033 16276 ft 330 kts 279°
2026-04-27 08:57 45.80605 23.47756 16973 ft 333 kts 279°
2026-04-27 08:58 45.80931 23.44462 17653 ft 335 kts 279°
2026-04-27 08:58 45.81259 23.41141 18351 ft 338 kts 279°
2026-04-27 08:58 45.81464 23.37777 19009 ft 340 kts 274°
2026-04-27 08:58 45.81576 23.34383 19662 ft 342 kts 274°
2026-04-27 08:59 45.81691 23.30963 20316 ft 344 kts 274°
2026-04-27 08:59 45.81808 23.27529 20982 ft 346 kts 274°
2026-04-27 08:59 45.81926 23.24066 21599 ft 348 kts 274°
2026-04-27 08:59 45.82041 23.20583 22202 ft 351 kts 274°
2026-04-27 09:00 45.82155 23.17075 22780 ft 353 kts 274°
2026-04-27 09:00 45.82270 23.13550 23385 ft 355 kts 274°
2026-04-27 09:00 45.82387 23.09996 23965 ft 358 kts 274°
2026-04-27 09:00 45.82502 23.06468 24451 ft 360 kts 273°
2026-04-27 09:01 45.82616 23.02873 24927 ft 362 kts 273°
2026-04-27 09:01 45.82730 22.99248 25360 ft 366 kts 274°
2026-04-27 09:01 45.82843 22.95595 25801 ft 368 kts 273°
2026-04-27 09:01 45.82954 22.91917 26238 ft 371 kts 273°
2026-04-27 09:02 45.83065 22.88207 26681 ft 373 kts 273°
2026-04-27 09:02 45.83177 22.84473 27115 ft 375 kts 273°
2026-04-27 09:02 45.83288 22.80716 27543 ft 378 kts 273°
2026-04-27 09:02 45.83399 22.76951 27958 ft 380 kts 273°
2026-04-27 09:03 45.83509 22.73153 28369 ft 382 kts 273°
2026-04-27 09:03 45.83621 22.69330 28774 ft 384 kts 273°
2026-04-27 09:03 45.83872 22.65507 29179 ft 386 kts 280°
2026-04-27 09:03 45.84577 22.61779 29577 ft 389 kts 289°
2026-04-27 09:04 45.85598 22.58159 29977 ft 392 kts 291°
2026-04-27 09:04 45.86633 22.54524 30369 ft 395 kts 291°
2026-04-27 09:04 45.87669 22.50865 30717 ft 397 kts 290°
2026-04-27 09:04 45.88712 22.47185 31058 ft 399 kts 290°
2026-04-27 09:05 45.89761 22.43486 31402 ft 401 kts 290°
2026-04-27 09:05 45.90814 22.39767 31733 ft 403 kts 290°
2026-04-27 09:05 45.91855 22.36078 32136 ft 403 kts 290°
2026-04-27 09:05 45.92916 22.32299 32636 ft 401 kts 290°
2026-04-27 09:06 45.93940 22.28644 33104 ft 400 kts 290°
2026-04-27 09:06 45.94976 22.24943 33567 ft 399 kts 290°
2026-04-27 09:06 45.96010 22.21244 34008 ft 399 kts 290°
2026-04-27 09:06 45.97043 22.17542 34247 ft 399 kts 290°
2026-04-27 09:07 45.98076 22.13833 34282 ft 399 kts 290°
2026-04-27 09:07 46.00132 22.06442 34278 ft 398 kts 290°
2026-04-27 09:08 46.02191 21.99039 34281 ft 398 kts 290°
2026-04-27 09:08 46.04245 21.91633 34359 ft 400 kts 290°
2026-04-27 09:08 46.05272 21.87902 34702 ft 400 kts 290°
2026-04-27 09:09 46.06296 21.84179 35050 ft 401 kts 290°
2026-04-27 09:09 46.07321 21.80446 35402 ft 400 kts 290°
2026-04-27 09:09 46.08343 21.76718 35747 ft 400 kts 290°
2026-04-27 09:09 46.09366 21.72991 36082 ft 400 kts 291°
2026-04-27 09:10 46.10389 21.69257 36255 ft 400 kts 291°
2026-04-27 09:10 46.12406 21.61866 36284 ft 396 kts 290°
2026-04-27 09:11 46.14419 21.54466 36293 ft 397 kts 291°
2026-04-27 09:11 46.16440 21.47021 36301 ft 399 kts 291°
2026-04-27 09:12 46.18465 21.39549 36299 ft 400 kts 291°
2026-04-27 09:12 46.20486 21.32077 36316 ft 400 kts 291°
2026-04-27 09:13 46.22500 21.24593 36320 ft 400 kts 291°
2026-04-27 09:13 46.24508 21.17100 36307 ft 400 kts 291°
2026-04-27 09:14 46.26508 21.09652 36314 ft 400 kts 292°
2026-04-27 09:14 46.28792 21.02317 36312 ft 400 kts 295°
2026-04-27 09:15 46.31256 20.95087 36304 ft 401 kts 296°
2026-04-27 09:15 46.33690 20.87840 36310 ft 401 kts 295°
2026-04-27 09:16 46.36075 20.80539 36307 ft 401 kts 295°
2026-04-27 09:16 46.38431 20.73233 36310 ft 401 kts 295°
2026-04-27 09:17 46.40789 20.65912 36312 ft 401 kts 295°
2026-04-27 09:17 46.43142 20.58592 36313 ft 401 kts 295°
2026-04-27 09:18 46.45502 20.51260 36311 ft 401 kts 295°
2026-04-27 09:18 46.47853 20.43921 36311 ft 401 kts 295°
2026-04-27 09:19 46.50180 20.36636 36312 ft 401 kts 295°
2026-04-27 09:19 46.52539 20.29240 36314 ft 401 kts 295°
2026-04-27 09:20 46.54857 20.21940 36314 ft 401 kts 295°
2026-04-27 09:20 46.57187 20.14579 36315 ft 401 kts 295°
2026-04-27 09:21 46.59518 20.07214 36314 ft 401 kts 295°
2026-04-27 09:21 46.61847 19.99837 36313 ft 401 kts 295°
2026-04-27 09:22 46.64164 19.92461 36309 ft 401 kts 294°
2026-04-27 09:22 46.66473 19.85064 36315 ft 401 kts 294°
2026-04-27 09:23 46.68780 19.77675 36304 ft 401 kts 295°
2026-04-27 09:23 46.71088 19.70269 36310 ft 401 kts 295°
2026-04-27 09:24 46.73389 19.62861 36329 ft 401 kts 295°
2026-04-27 09:24 46.75681 19.55447 36326 ft 401 kts 295°
2026-04-27 09:25 46.77960 19.48065 36325 ft 401 kts 295°
2026-04-27 09:25 46.80244 19.40640 36311 ft 401 kts 295°
2026-04-27 09:26 46.82148 19.34399 36307 ft 402 kts 295°
2026-04-27 09:26 46.84401 19.26937 36314 ft 402 kts 294°
2026-04-27 09:27 46.86643 19.19514 36311 ft 402 kts 294°
2026-04-27 09:27 46.88896 19.12040 36300 ft 402 kts 294°
2026-04-27 09:28 46.91141 19.04547 36293 ft 402 kts 295°
2026-04-27 09:28 46.93390 18.97044 36294 ft 403 kts 295°
2026-04-27 09:29 46.95642 18.89517 36298 ft 403 kts 295°
2026-04-27 09:29 46.97883 18.81987 36298 ft 403 kts 294°
2026-04-27 09:30 47.00116 18.74445 36290 ft 404 kts 295°
2026-04-27 09:30 47.02346 18.66895 36293 ft 404 kts 294°
2026-04-27 09:31 47.04558 18.59387 36294 ft 404 kts 294°
2026-04-27 09:31 47.06787 18.51812 36301 ft 404 kts 294°
2026-04-27 09:32 47.09007 18.44242 36297 ft 404 kts 294°
2026-04-27 09:32 47.11226 18.36655 36292 ft 404 kts 294°
2026-04-27 09:33 47.13432 18.29052 36291 ft 404 kts 294°
2026-04-27 09:33 47.15643 18.21448 36293 ft 405 kts 294°
2026-04-27 09:34 47.17852 18.13840 36295 ft 405 kts 294°
2026-04-27 09:34 47.20032 18.06276 36299 ft 405 kts 294°
2026-04-27 09:35 47.22224 17.98647 36286 ft 405 kts 294°
2026-04-27 09:35 47.24410 17.91016 36297 ft 405 kts 294°
2026-04-27 09:36 47.26593 17.83382 36292 ft 404 kts 294°
2026-04-27 09:36 47.28764 17.75736 36282 ft 404 kts 294°
2026-04-27 09:37 47.30938 17.68091 36287 ft 404 kts 294°
2026-04-27 09:37 47.33110 17.60440 36269 ft 404 kts 294°
2026-04-27 09:38 47.35270 17.52790 36277 ft 404 kts 294°
2026-04-27 09:38 47.37407 17.45174 36278 ft 404 kts 294°
2026-04-27 09:39 47.39552 17.37504 36274 ft 404 kts 294°
2026-04-27 09:39 47.41699 17.29821 36258 ft 404 kts 294°
2026-04-27 09:40 47.43845 17.22136 36259 ft 405 kts 294°
2026-04-27 09:40 47.45980 17.14445 36258 ft 405 kts 294°
2026-04-27 09:41 47.48112 17.06735 36247 ft 405 kts 294°
2026-04-27 09:41 47.50240 16.99027 36256 ft 405 kts 294°
2026-04-27 09:42 47.52369 16.91311 36236 ft 405 kts 295°
2026-04-27 09:42 47.54484 16.83579 36242 ft 405 kts 294°
2026-04-27 09:43 47.56592 16.75834 36246 ft 405 kts 294°
2026-04-27 09:43 47.58708 16.68095 36248 ft 405 kts 294°
2026-04-27 09:44 47.60805 16.60408 36243 ft 405 kts 294°
2026-04-27 09:44 47.62910 16.52664 36248 ft 405 kts 294°
2026-04-27 09:45 47.65010 16.44909 36243 ft 405 kts 294°
2026-04-27 09:45 47.67102 16.37142 36243 ft 405 kts 294°
2026-04-27 09:46 47.69184 16.29379 36243 ft 405 kts 294°
2026-04-27 09:46 47.71272 16.21594 36243 ft 405 kts 294°
2026-04-27 09:47 47.73348 16.13827 36220 ft 405 kts 294°
2026-04-27 09:47 47.75419 16.06051 36228 ft 404 kts 294°
2026-04-27 09:48 47.77486 15.98274 36231 ft 404 kts 294°
2026-04-27 09:48 47.79544 15.90496 36232 ft 404 kts 294°
2026-04-27 09:49 47.81591 15.82711 36230 ft 404 kts 294°
2026-04-27 09:49 47.83619 15.74975 36221 ft 403 kts 294°
2026-04-27 09:50 47.85660 15.67196 36227 ft 403 kts 294°
2026-04-27 09:50 47.87692 15.59423 36230 ft 403 kts 294°
2026-04-27 09:51 47.89721 15.51633 36235 ft 403 kts 294°
2026-04-27 09:51 47.91740 15.43853 36228 ft 403 kts 294°
2026-04-27 09:52 47.93752 15.36055 36223 ft 402 kts 294°
2026-04-27 09:52 47.95748 15.28264 36224 ft 402 kts 294°
2026-04-27 09:53 47.97749 15.20466 36232 ft 402 kts 294°
2026-04-27 09:53 47.99742 15.12669 36230 ft 402 kts 294°
2026-04-27 09:54 48.01719 15.04915 36228 ft 401 kts 294°
2026-04-27 09:54 48.03702 14.97114 36219 ft 401 kts 294°
2026-04-27 09:55 48.05675 14.89309 36231 ft 402 kts 294°
2026-04-27 09:55 48.08623 14.77592 36238 ft 401 kts 294°
2026-04-27 09:56 48.10592 14.69770 36238 ft 401 kts 294°
2026-04-27 09:56 48.12546 14.61950 36227 ft 401 kts 293°
2026-04-27 09:57 48.14493 14.54122 36237 ft 401 kts 293°
2026-04-27 09:57 48.16434 14.46288 36251 ft 401 kts 293°
2026-04-27 09:58 48.18377 14.38455 36259 ft 401 kts 293°
2026-04-27 09:58 48.20296 14.30671 36260 ft 401 kts 293°
2026-04-27 09:59 48.22220 14.22833 36246 ft 400 kts 292°
2026-04-27 09:59 48.24136 14.14991 36247 ft 400 kts 292°
2026-04-27 10:00 48.26051 14.07134 36246 ft 400 kts 292°
2026-04-27 10:00 48.27962 13.99284 36249 ft 400 kts 292°
2026-04-27 10:01 48.29864 13.91432 36249 ft 400 kts 292°
2026-04-27 10:01 48.31756 13.83564 36230 ft 400 kts 292°
2026-04-27 10:02 48.33648 13.75688 36233 ft 400 kts 292°
2026-04-27 10:02 48.35524 13.67866 36239 ft 401 kts 292°
2026-04-27 10:03 48.37415 13.59972 36222 ft 401 kts 292°
2026-04-27 10:03 48.38347 13.56053 35960 ft 395 kts 292°
2026-04-27 10:03 48.39261 13.52192 35698 ft 387 kts 292°
2026-04-27 10:04 48.40156 13.48417 35453 ft 379 kts 292°
2026-04-27 10:04 48.41034 13.44715 35200 ft 372 kts 291°
2026-04-27 10:04 48.41892 13.41082 34946 ft 366 kts 291°
2026-04-27 10:04 48.42741 13.37471 34706 ft 367 kts 291°
2026-04-27 10:05 48.43627 13.33732 34278 ft 391 kts 291°
2026-04-27 10:05 48.44704 13.29855 33726 ft 410 kts 300°
2026-04-27 10:05 48.46143 13.26074 33185 ft 420 kts 301°
2026-04-27 10:05 48.47611 13.22242 32646 ft 425 kts 301°
2026-04-27 10:06 48.49077 13.18418 32042 ft 428 kts 301°
2026-04-27 10:06 48.50566 13.14525 31404 ft 429 kts 301°
2026-04-27 10:06 48.52058 13.10615 30784 ft 431 kts 301°
2026-04-27 10:06 48.53557 13.06683 30138 ft 433 kts 301°
2026-04-27 10:07 48.55063 13.02729 29416 ft 436 kts 301°
2026-04-27 10:07 48.56575 12.98751 28723 ft 438 kts 301°
2026-04-27 10:07 48.58094 12.94743 28061 ft 440 kts 301°
2026-04-27 10:07 48.59617 12.90721 27409 ft 442 kts 300°
2026-04-27 10:08 48.61147 12.86675 26764 ft 445 kts 300°
2026-04-27 10:08 48.62684 12.82604 26134 ft 447 kts 300°
2026-04-27 10:08 48.64228 12.78507 25513 ft 450 kts 300°
2026-04-27 10:08 48.65779 12.74384 24911 ft 452 kts 300°
2026-04-27 10:09 48.67315 12.70301 24316 ft 440 kts 300°
2026-04-27 10:09 48.68810 12.66326 23724 ft 429 kts 300°
2026-04-27 10:09 48.70264 12.62452 23127 ft 418 kts 300°
2026-04-27 10:09 48.71675 12.58677 22590 ft 407 kts 300°
2026-04-27 10:10 48.73054 12.54983 22056 ft 398 kts 300°
2026-04-27 10:10 48.74407 12.51369 21551 ft 390 kts 300°
2026-04-27 10:10 48.75735 12.47820 21037 ft 386 kts 300°
2026-04-27 10:10 48.77050 12.44299 20533 ft 382 kts 300°
2026-04-27 10:11 48.78354 12.40795 20039 ft 380 kts 300°
2026-04-27 10:11 48.79641 12.37308 19555 ft 378 kts 300°
2026-04-27 10:11 48.80904 12.33879 19082 ft 376 kts 300°
2026-04-27 10:11 48.82176 12.30443 18602 ft 372 kts 300°
2026-04-27 10:12 48.83510 12.27108 18074 ft 367 kts 308°
2026-04-27 10:12 48.85321 12.24468 17680 ft 358 kts 324°
2026-04-27 10:12 48.87339 12.22353 17415 ft 347 kts 326°
2026-04-27 10:12 48.89306 12.20317 17157 ft 337 kts 326°
2026-04-27 10:13 48.91218 12.18345 16909 ft 328 kts 326°
2026-04-27 10:13 48.93081 12.16427 16644 ft 320 kts 326°
2026-04-27 10:13 48.94900 12.14554 16385 ft 312 kts 326°
2026-04-27 10:13 48.96684 12.12712 16133 ft 307 kts 326°
2026-04-27 10:14 48.98444 12.10889 15879 ft 306 kts 326°
2026-04-27 10:14 49.00201 12.09065 15628 ft 305 kts 326°
2026-04-27 10:14 49.01953 12.07246 15380 ft 304 kts 326°
2026-04-27 10:14 49.03688 12.05447 15130 ft 300 kts 326°
2026-04-27 10:15 49.05390 12.03685 14787 ft 299 kts 326°
2026-04-27 10:15 49.07107 12.01906 14422 ft 298 kts 326°
2026-04-27 10:15 49.08822 12.00127 14051 ft 298 kts 326°
2026-04-27 10:15 49.10533 11.98349 13647 ft 297 kts 326°
2026-04-27 10:16 49.12234 11.96575 13278 ft 295 kts 326°
2026-04-27 10:16 49.13924 11.94813 12916 ft 293 kts 326°
2026-04-27 10:16 49.15610 11.93057 12539 ft 292 kts 326°
2026-04-27 10:16 49.17286 11.91306 12185 ft 291 kts 325°
2026-04-27 10:17 49.18392 11.90149 11946 ft 290 kts 326°
2026-04-27 10:17 49.20055 11.88412 11581 ft 289 kts 326°
2026-04-27 10:17 49.21716 11.86676 11220 ft 288 kts 326°
2026-04-27 10:17 49.23369 11.84946 10868 ft 288 kts 326°
2026-04-27 10:18 49.25023 11.83209 10507 ft 287 kts 326°
2026-04-27 10:18 49.26671 11.81477 10143 ft 287 kts 326°
2026-04-27 10:18 49.28317 11.79749 9753 ft 287 kts 326°
2026-04-27 10:18 49.29965 11.78019 9374 ft 286 kts 325°
2026-04-27 10:19 49.31598 11.76298 9023 ft 284 kts 325°
2026-04-27 10:19 49.33218 11.74589 8665 ft 282 kts 325°
2026-04-27 10:19 49.34833 11.72885 8301 ft 282 kts 325°
2026-04-27 10:19 49.36444 11.71187 7939 ft 280 kts 325°
2026-04-27 10:20 49.38050 11.69496 7593 ft 280 kts 325°
2026-04-27 10:20 49.39651 11.67806 7237 ft 279 kts 325°
2026-04-27 10:20 49.41257 11.66112 6872 ft 281 kts 325°
2026-04-27 10:20 49.42828 11.64332 6495 ft 281 kts 317°
2026-04-27 10:21 49.44026 11.61989 6134 ft 280 kts 298°
2026-04-27 10:21 49.44671 11.59227 6044 ft 269 kts 281°
2026-04-27 10:21 49.44960 11.56443 5942 ft 259 kts 279°
2026-04-27 10:21 49.45239 11.53748 5824 ft 251 kts 280°
2026-04-27 10:22 49.45508 11.51143 5718 ft 243 kts 279°
2026-04-27 10:22 49.45764 11.48643 5611 ft 236 kts 279°
2026-04-27 10:22 49.46017 11.46168 5495 ft 231 kts 279°
2026-04-27 10:22 49.46263 11.43763 5412 ft 226 kts 279°
2026-04-27 10:23 49.46505 11.41388 5180 ft 225 kts 279°
2026-04-27 10:23 49.46746 11.39016 4889 ft 225 kts 279°
2026-04-27 10:23 49.46987 11.36638 4580 ft 225 kts 279°
2026-04-27 10:23 49.47226 11.34275 4274 ft 225 kts 279°
2026-04-27 10:24 49.47466 11.31894 3971 ft 226 kts 279°
2026-04-27 10:24 49.47703 11.29540 3669 ft 217 kts 279°
2026-04-27 10:24 49.47929 11.27296 3376 ft 207 kts 279°
2026-04-27 10:24 49.48140 11.25185 3151 ft 194 kts 280°
2026-04-27 10:25 49.48342 11.23172 2837 ft 183 kts 279°
2026-04-27 10:25 49.48524 11.21355 2621 ft 163 kts 279°
2026-04-27 10:25 49.48688 11.19703 2393 ft 150 kts 280°
2026-04-27 10:25 49.48844 11.18138 2197 ft 146 kts 280°
2026-04-27 10:26 49.48997 11.16606 2005 ft 144 kts 280°
2026-04-27 10:26 49.49148 11.15095 1806 ft 142 kts 280°
2026-04-27 10:26 49.49296 11.13607 1620 ft 140 kts 280°
2026-04-27 10:26 49.49444 11.12132 1423 ft 138 kts 279°
2026-04-27 10:27 49.49586 11.10675 1246 ft 137 kts 280°
2026-04-27 10:27 49.49728 11.09233 1057 ft 135 kts 280°
2026-04-27 10:27 49.49849 11.08031 1031 ft 83 kts 279°
2026-04-27 10:27 49.49879 11.07693 1027 ft 11 kts 274°
2026-04-27 10:28 49.49839 11.07642 1024 ft 10 kts 171°
2026-04-27 10:28 49.49789 11.07678 1025 ft 8 kts 153°
2026-04-27 10:28 49.49735 11.07719 1026 ft 10 kts 153°
2026-04-27 10:28 49.49676 11.07766 1027 ft 8 kts 152°
2026-04-27 10:29 49.49620 11.07767 1023 ft 9 kts 193°
2026-04-27 10:29 49.49592 11.07715 1025 ft 7 kts 266°
2026-04-27 10:29 49.49596 11.07665 1026 ft 6 kts 278°
2026-04-27 10:29 49.49598 11.07645 1026 ft 0 kts 278°
2026-04-27 10:31 49.49599 11.07632 1026 ft 4 kts 278°
2026-04-27 10:31 49.49589 11.07600 1026 ft 4 kts 209°
2026-04-27 10:31 49.49557 11.07590 1026 ft 3 kts 189°
2026-04-27 10:32 49.49538 11.07585 1026 ft 2 kts 189°
2026-04-27 10:32 49.49536 11.07585 1026 ft 0 kts 188°